Weather History for Keokuk, IA

Change the Weather History Date:

Wednesday, December 11, 2013

  Actual Average Record
Temperature  
Mean Temperature 14 °F -  
Max Temperature 26 °F 38 °F 61 °F (1965)
Min Temperature 3 °F 22 °F -1 °F (1972)
Degree Days  
Heating Degree Days 50    
Moisture  
Dew Point 5 °F    
Average Humidity 65    
Maximum Humidity 86    
Minimum Humidity 45    
Precipitation  
Precipitation 0.00 in - - ()
Sea Level Pressure  
Sea Level Pressure 30.47 in    
Wind  
Wind Speed 8 mph (NW)    
Max Wind Speed 21 mph    
Max Gust Speed 30 mph    
Visibility 10 miles    
Events Snow    
Averages and records for this station are not official NWS values.
T = Trace of Precipitation, MM = Missing Value Source: NWS Daily Summary

Daily Weather History Graph

Daily Weather History Graph

Search for Another Location

Airport:

Trip Planner

Search our weather history database for the weather conditions in past years. The results will help you decide how hot, cold, wet, or windy it might be!

Date:

Astronomy

Dec. 11, 2013 Rise Set
Actual Time 7:19 AM CST 4:39 PM CST
Civil Twilight 6:48 AM CST 5:09 PM CST
Nautical Twilight 6:14 AM CST 5:44 PM CST
Astronomical Twilight 5:40 AM CST 6:17 PM CST
Moon 1:13 PM CST (12/11) 1:39 AM CST (12/11)
Length of Visible Light 10h 21m
Length of Day
9h 20m
Waxing Gibbous, 72% of the Moon is Illuminated
Dec 11
Waxing Gibbous
Dec 17
Full
Dec 25
Last Quarter
Jan 1
New
Jan 7
First Quarter

Hourly Weather History & Observations

Time (CST) Temp. Windchill Dew Point Humidity Pressure Visibility Wind Dir Wind Speed Gust Speed Precip Events Conditions
12:15 AM 23.0 °F 15.8 °F 12.2 °F 63% 30.25 in 10.0 mi SSE 5.8 mph - N/A   Overcast
12:35 AM 23.0 °F 15.8 °F 12.2 °F 63% 30.24 in 10.0 mi SE 5.8 mph - N/A   Overcast
12:55 AM 23.0 °F 17.0 °F 12.2 °F 63% 30.24 in 10.0 mi SE 4.6 mph - N/A   Overcast
1:15 AM 23.0 °F - 14.0 °F 68% 30.24 in 10.0 mi Calm Calm - N/A   Overcast
1:35 AM 23.0 °F 17.0 °F 14.0 °F 68% 30.23 in 10.0 mi SE 4.6 mph - N/A   Overcast
1:55 AM 23.0 °F - 15.8 °F 74% 30.23 in 10.0 mi Calm Calm - N/A   Overcast
2:15 AM 23.0 °F 15.8 °F 14.0 °F 68% 30.23 in 10.0 mi SE 5.8 mph - N/A   Overcast
2:35 AM 24.8 °F 19.1 °F 14.0 °F 64% 30.23 in 10.0 mi SSE 4.6 mph - N/A   Overcast
2:55 AM 24.8 °F 20.5 °F 14.0 °F 64% 30.23 in 10.0 mi South 3.5 mph - N/A   Overcast
3:15 AM 24.8 °F 20.5 °F 14.0 °F 64% 30.23 in 10.0 mi Variable 3.5 mph - N/A   Overcast
3:35 AM 24.8 °F 16.9 °F 15.8 °F 69% 30.24 in 10.0 mi SSW 6.9 mph - N/A   Overcast
3:55 AM 24.8 °F 16.9 °F 15.8 °F 69% 30.24 in 10.0 mi SW 6.9 mph - N/A   Overcast
4:15 AM 24.8 °F 16.1 °F 15.8 °F 69% 30.24 in 10.0 mi SW 8.1 mph - N/A   Overcast
4:35 AM 24.8 °F 16.1 °F 15.8 °F 69% 30.24 in 10.0 mi WSW 8.1 mph - N/A   Overcast
4:55 AM 24.8 °F 16.9 °F 15.8 °F 69% 30.24 in 10.0 mi WSW 6.9 mph - N/A   Overcast
5:15 AM 24.8 °F 16.1 °F 15.8 °F 69% 30.26 in 10.0 mi West 8.1 mph - N/A   Overcast
5:35 AM 24.8 °F 15.3 °F 17.6 °F 74% 30.27 in - West 9.2 mph - N/A   Overcast
5:55 AM 26.6 °F 15.2 °F 17.6 °F 69% 30.28 in 10.0 mi NW 13.8 mph - N/A   Overcast
6:15 AM 26.6 °F 13.8 °F 17.6 °F 69% 30.30 in 10.0 mi NW 17.3 mph 24.2 mph N/A   Overcast
6:35 AM 24.8 °F 11.5 °F 15.8 °F 69% 30.33 in 10.0 mi NNW 17.3 mph 27.6 mph N/A   Overcast
6:55 AM 21.2 °F 8.9 °F 14.0 °F 74% 30.35 in 10.0 mi NNW 12.7 mph 26.5 mph N/A   Mostly Cloudy
7:15 AM 19.4 °F 7.9 °F 15.8 °F 86% 30.37 in 10.0 mi NNW 10.4 mph 18.4 mph N/A   Mostly Cloudy
7:35 AM 19.4 °F 7.9 °F 15.8 °F 86% 30.39 in 10.0 mi NNW 10.4 mph - N/A   Scattered Clouds
7:55 AM 19.4 °F 7.2 °F 15.8 °F 86% 30.41 in 10.0 mi NNW 11.5 mph 19.6 mph N/A   Mostly Cloudy
8:15 AM 19.4 °F 5.0 °F 15.8 °F 86% 30.43 in 10.0 mi NNW 16.1 mph 25.3 mph N/A   Overcast
8:35 AM 19.4 °F 6.0 °F 15.8 °F 86% 30.45 in 10.0 mi NNW 13.8 mph 23.0 mph N/A   Overcast
8:55 AM 19.4 °F 3.2 °F 14.0 °F 80% 30.47 in 10.0 mi NW 20.7 mph 29.9 mph N/A Snow Light Snow
9:15 AM 19.4 °F 8.6 °F 12.2 °F 74% 30.49 in 10.0 mi NNW 9.2 mph 24.2 mph N/A Snow Light Snow
9:35 AM 19.4 °F 4.5 °F 12.2 °F 74% 30.50 in 10.0 mi NNW 17.3 mph 24.2 mph N/A   Mostly Cloudy
9:55 AM 19.4 °F 6.0 °F 12.2 °F 74% 30.51 in 10.0 mi NNW 13.8 mph 23.0 mph N/A Snow Light Snow
10:15 AM 19.4 °F 4.5 °F 10.4 °F 68% 30.53 in 10.0 mi NNW 17.3 mph 24.2 mph N/A   Mostly Cloudy
10:35 AM 17.6 °F 4.3 °F 6.8 °F 63% 30.54 in 10.0 mi NW 12.7 mph 21.9 mph N/A   Partly Cloudy
10:55 AM 15.8 °F 0.9 °F 3.2 °F 58% 30.54 in 10.0 mi NNW 15.0 mph 23.0 mph N/A   Clear
11:15 AM 17.6 °F 1.7 °F 1.4 °F 49% 30.54 in 10.0 mi NW 18.4 mph - N/A   Clear
11:35 AM 15.8 °F 0.3 °F -0.4 °F 49% 30.54 in 10.0 mi NW 16.1 mph 23.0 mph N/A   Clear
11:55 AM 15.8 °F 1.4 °F -0.4 °F 49% 30.54 in 10.0 mi NW 13.8 mph - N/A   Clear
12:15 PM 15.8 °F 2.1 °F -0.4 °F 49% 30.54 in 10.0 mi NNW 12.7 mph 23.0 mph N/A   Clear
12:35 PM 15.8 °F 0.3 °F -2.2 °F 45% 30.55 in 10.0 mi NW 16.1 mph - N/A   Clear
12:55 PM 14.0 °F 1.2 °F -2.2 °F 49% 30.55 in 10.0 mi NNW 10.4 mph 20.7 mph N/A   Clear
1:15 PM 14.0 °F 1.2 °F -2.2 °F 49% 30.56 in 10.0 mi NNW 10.4 mph 17.3 mph N/A   Clear
1:35 PM 14.0 °F -0.2 °F -4.0 °F 45% 30.57 in 10.0 mi NNW 12.7 mph 21.9 mph N/A   Clear
1:55 PM 14.0 °F 0.5 °F -2.2 °F 49% 30.56 in 10.0 mi NNW 11.5 mph - N/A   Clear
2:15 PM 14.0 °F -0.2 °F -4.0 °F 45% 30.56 in 10.0 mi WNW 12.7 mph - N/A   Clear
2:35 PM 14.0 °F -0.8 °F -4.0 °F 45% 30.56 in 10.0 mi NNW 13.8 mph - N/A   Clear
2:55 PM 14.0 °F 2.0 °F -2.2 °F 49% 30.57 in 10.0 mi NNW 9.2 mph - N/A   Clear
3:15 PM 14.0 °F 0.5 °F -2.2 °F 49% 30.58 in 10.0 mi NNW 11.5 mph - N/A   Clear
3:35 PM 12.2 °F -0.2 °F -4.0 °F 48% 30.58 in 10.0 mi NNW 9.2 mph 15.0 mph N/A   Clear
3:55 PM 12.2 °F -1.0 °F -4.0 °F 48% 30.58 in 10.0 mi North 10.4 mph - N/A   Clear
4:15 PM 10.4 °F -1.5 °F -4.0 °F 52% 30.59 in 10.0 mi NNW 8.1 mph 15.0 mph N/A   Clear
4:35 PM 10.4 °F -1.5 °F -5.8 °F 48% 30.60 in 10.0 mi NNW 8.1 mph - N/A   Clear
4:55 PM 8.6 °F -2.6 °F -4.0 °F 57% 30.61 in 10.0 mi NNW 6.9 mph - N/A   Clear
5:15 PM 8.6 °F - -4.0 °F 57% 30.61 in 10.0 mi North - - N/A   Clear
5:35 PM 6.8 °F -3.5 °F -4.0 °F 61% 30.61 in 10.0 mi NNW 5.8 mph - N/A   Clear
5:55 PM 6.8 °F -3.5 °F -4.0 °F 61% 30.61 in 10.0 mi NNW 5.8 mph - N/A   Clear
6:15 PM 6.8 °F -0.1 °F -4.0 °F 61% 30.62 in 10.0 mi NNW 3.5 mph - N/A   Clear
6:35 PM 5.0 °F -4.1 °F -4.0 °F 66% 30.62 in 10.0 mi North 4.6 mph - N/A   Clear
6:55 PM 5.0 °F -4.1 °F -4.0 °F 66% 30.62 in 10.0 mi NNW 4.6 mph - N/A   Clear
7:15 PM 5.0 °F -4.1 °F -4.0 °F 66% 30.62 in 10.0 mi NNW 4.6 mph - N/A   Clear
7:35 PM 3.2 °F - -4.0 °F 72% 30.63 in 10.0 mi Calm Calm - N/A   Clear
7:55 PM 5.0 °F - -4.0 °F 66% 30.63 in 10.0 mi Calm Calm - N/A   Clear
8:15 PM 3.2 °F - -4.0 °F 72% 30.62 in 10.0 mi Calm Calm - N/A   Clear
8:35 PM 5.0 °F - -4.0 °F 66% 30.62 in 10.0 mi Calm Calm - N/A   Clear
8:55 PM 3.2 °F - -2.2 °F 78% 30.62 in 10.0 mi Calm Calm - N/A   Clear
9:15 PM 3.2 °F - -2.2 °F 78% 30.62 in 10.0 mi Calm Calm - N/A   Clear
9:35 PM 5.0 °F - -2.2 °F 72% 30.62 in 10.0 mi Calm Calm - N/A   Clear
9:55 PM 5.0 °F - -0.4 °F 78% 30.61 in 10.0 mi Calm Calm - N/A   Partly Cloudy
10:15 PM 5.0 °F - -2.2 °F 72% 30.61 in 10.0 mi Calm Calm - N/A   Scattered Clouds
10:35 PM 5.0 °F - -2.2 °F 72% 30.61 in 10.0 mi Calm Calm - N/A   Scattered Clouds
10:55 PM 5.0 °F - -2.2 °F 72% 30.61 in 10.0 mi Calm Calm - N/A   Partly Cloudy
11:15 PM 3.2 °F -4.2 °F -2.2 °F 78% 30.61 in 10.0 mi SSW 3.5 mph - N/A   Clear
11:35 PM 3.2 °F -6.2 °F -2.2 °F 78% 30.59 in 10.0 mi SSW 4.6 mph - N/A   Clear
11:55 PM 3.2 °F -4.2 °F -2.2 °F 78% 30.58 in 10.0 mi SSW 3.5 mph - N/A   Clear